Powrót do katalogu

SACI 1

AktywnyNaukaSSO
NORAD 25941·PAYLOAD·🇧🇷 Brazil

Wystrzelony Oct 14, 1999 z Taiyuan Satellite Launch Center

Loading…

Następne Przeloty (najbliższe 24 godziny)

TLE

ŚwieżeSource: Space-Track

Epoka: Sep 14, 2026, 09:23 UTC

1 25941U 99057B   26257.39152911  .00000264  00000-0  72645-4 0  9994
2 25941  98.6273 308.7812 0008804  33.5976 326.5777 14.54971660425618

Śledź SACI 1 w czasie rzeczywistym z AllMySat

Download on the App Store